Home > Weather > Tromsø > Past weeks

Flag for Norway Past Weather in Tromsø, Norway — Yesterday and Last 2 Weeks

Now
48 °F

Overcast.


Feels Like: 48 °F
Forecast: 46 / 60 °F
Wind: 1 mph from Northeast

Location: Tromso / Langnes

Current Time: Jun 25, 2016 at 7:25:39 AM

Latest Report: Jun 25, 2016 at 6:00 AM


Visibility: 25 mi

Pressure: 29.99 "Hg

Humidity: 89%

Dew Point: 45 °F

Location of TromsøLocation

Past Weather in Tromsø — Graph

°F

Tromsø Temperature Yesterday

Maximum temperature yesterday: 53 °F (at 10:00 AM)
Minimum temperature yesterday: 48 °F (at 9:00 PM)
Average temperature yesterday: 51 °F

High & Low Weather Summary for the Past Weeks

 TemperatureHumidityPressure
High59 °F (Jun 21, 3:00 PM)94% (Jun 23, 4:00 AM)30.10 "Hg (Jun 23, 4:00 AM)
Low38 °F (Jun 11, 2:00 AM)48% (Jun 10, 2:00 PM)29.71 "Hg (Jun 14, 8:00 AM)
Average47 °F79%29.90 "Hg
* Reported Jun 10 6:00 AM — Jun 25 6:00 AM, Tromsø, Weather by CustomWeather, © 2016

Note: Actual official high and low records may vary slightly from our data, if they occured in-between our weather recording intervals... More about our weather records

Advertising

Tromsø Weather History for the Previous 24 Hours

Scroll right to see more
 ConditionsComfort  
Time TempWeatherWind HumidityBarometerVisibility
6:00 AM
Sat, Jun 25
48 °FOvercast.1 mph89%29.99 "Hg25 mi
5:00 AM47 °FOvercast.1 mph90%30.00 "Hg22 mi
4:00 AM47 °FOvercast.No wind91%30.00 "Hg19 mi
3:00 AM46 °FOvercast.1 mph89%30.01 "Hg22 mi
2:00 AM47 °FOvercast.1 mph87%30.02 "Hg25 mi
1:00 AM47 °FOvercast.2 mph88%30.02 "Hg25 mi
12:00 AM48 °FOvercast.1 mph77%30.03 "Hg31 mi
11:00 PM
Fri, Jun 24
48 °FOvercast.6 mph82%30.03 "Hg31 mi
10:00 PM48 °FOvercast.7 mph84%30.03 "Hg25 mi
9:00 PM48 °FOvercast.7 mph87%30.03 "Hg19 mi
8:00 PM48 °FOvercast.8 mph90%30.03 "Hg19 mi
7:00 PM50 °FOvercast.8 mph87%30.03 "Hg15 mi
6:00 PM49 °FRain. Overcast.7 mph89%30.03 "Hg5 mi
5:00 PM53 °FOvercast.3 mph86%30.03 "Hg22 mi
4:00 PM52 °FOvercast.1 mph83%30.03 "Hg25 mi
3:00 PM50 °FOvercast.1 mph87%30.04 "Hg22 mi
2:00 PM49 °FOvercast.9 mph87%30.03 "Hg22 mi
1:00 PM49 °FLots of rain. Low clouds.13 mph90%30.01 "Hg3 mi
12:00 PM51 °FRain showers. Low clouds.10 mph90%30.01 "Hg9 mi
11:00 AM53 °FDrizzle. Overcast.2 mph91%30.01 "Hg19 mi
10:00 AM53 °FRain showers. Overcast.5 mph91%30.01 "Hg7 mi
9:00 AM51 °FRain showers. Overcast.5 mph92%30.01 "Hg9 mi
8:00 AM52 °FRain showers. Overcast.2 mph87%30.01 "Hg14 mi
7:00 AM53 °FLight rain. Overcast.2 mph87%30.00 "Hg11 mi
Weather by CustomWeather, © 2016

See weather overviewHow to use our weather pages